Lid_Strength_Index
3 4 4 4 5 5 4 4 2 2 2 2 2 3 1 2 1 -0 1 1 1 1
5 5 5 5 4 4 3 4 3 3 3 3 3 2 2 2 1 1 2 2 2 3
5 4 4 3 2 3 3 4 3 3 3 3 3 3 3 3 2 2 2 2 3 3
4 3 2 3 3 3 3 4 4 3 3 3 3 3 3 2 3 2 2 2 3 3
3 3 3 4 3 4 3 3 3 3 3 3 3 3 3 4 3 3 3 4 4 4
2 3 3 4 4 4 4 2 2 2 3 3 3 3 3 4 4 4 4 4 5 5
2 3 4 4 4 4 3 3 3 3 3 4 4 4 4 4 4 5 5 5 5 5
2 3 3 4 4 3 3 3 3 4 4 4 4 4 4 5 5 6 5 5 5 5
3 3 3 4 4 4 4 4 4 5 5 5 5 7 7 7 6 6 6 6 5 5
3 4 4 4 4 5 5 5 5 5 5 6 6 8 8 8 7 7 6 6 5 5
6 6 6 8 9 9 9 9 9 9 9 8 8 9 9 8 6 6 6 6 5 4
9 10 10 10 10 10 10 10 10 9 9 9 9 9 10 8 6 6 5 5 4 4
9 9 10 10 11 10 10 10 10 10 10 9 9 9 10 8 6 6 6 5 4 5
10 11 10 11 10 10 11 10 10 10 10 10 9 8 9 9 6 6 6 6 5 5